SCP
0 0 0 0 0 0 0 0 0 0 0 0 0 0 0 0 0 0 0 0 0 0 0 0 0 0 0 0 0 0 0 0 0 0 0 0 0 0 0 0 0 0 0 0 0 0 0 0 0
0 0 0 0 0 0 0 0 0 0 0 0 0 0 0 0 0 0 0 0 0 0 0 0 0 0 0 0 0 0 0 0 0 0 0 0 0 0 0 0 0 0 0 0 0 0 0 0 0
0 0 0 0 0 0 0 0 0 0 0 0 0 0 0 0 0 0 0 0 0 0 0 0 0 0 0 0 0 0 0 0 0 0 0 0 0 0 0 0 0 0 0 0 0 0 0 0 0
0 0 0 0 0 0 0 0 0 0 0 0 0 0 0 0 0 0 0 0 0 0 0 0 0 0 0 0 0 0 0 0 0 0 0 0 0 0 0 0 0 0 0 0 0 0 0 0 0
0 0 0 0 0 0 0 0 0 0 0 0 0 0 0 0 0 0 0 0 0 0 0 0 0 0 0 0 0 0 0 0 0 0 0 0 0 0 0 0 0 0 0 0 0 0 0 0 0
0 0 0 0 0 0 0 0 0 0 0 0 0 0 0 0 0 0 0 0 0 0 0 0 0 0 0 0 0 0 0 0 0 0 0 0 0 0 0 0 0 0 0 0 0 0 0 0 0
0 0 0 0 0 0 0 0 0 0 0 0 0 0 0 0 0 0 0 0 0 0 0 0 0 0 0 0 0 0 0 0 0 0 0 0 0 0 0 0 0 0 0 0 0 0 0 0 0
0 0 0 0 0 0 0 0 0 0 0 0 0 0 0 0 0 0 0 0 0 0 0 0 0 0 0 0 0 0 0 0 0 0 0 0 0 0 0 0 0 0 0 0 0 0 0 0 0
0 0 0 0 0 0 0 0 0 0 0 0 0 0 0 0 0 0 0 0 0 0 0 0 0 0 0 0 0 0 0 0 0 0 0 0 0 0 0 0 0 0 0 0 0 0 0 0 0
0 0 0 0 0 0 0 0 0 0 0 0 0 0 0 0 0 0 0 0 0 0 0 0 0 0 0 0 0 0 0 0 0 0 0 0 0 0 0 0 0 0 0 0 0 0 0 0 0
0 0 0 0 0 0 0 0 0 0 0 0 0 0 0 0 0 0 0 0 0 0 0 0 0 0 0 0 0 0 0 0 0 0 0 0 0 0 0 0 0 0 0 0 0 0 0 0 0
0 0 0 0 0 0 0 0 0 0 0 0 0 0 0 0 0 0 0 0 0 0 0 0 0 0 0 0 0 0 0 0 0 0 0 0 0 0 0 0 0 0 0 0 0 0 0 0 0
0 0 0 0 0 0 0 0 0 0 0 0 0 0 0 0 0 0 0 0 0 0 0 0 0 0 0 0 0 0 0 0 0 0 0 0 0 0 0 0 0 0 0 0 0 0 0 0 0
0 0 0 0 0 0 0 0 0 0 0 0 0 0 0 0 0 0 0 0 0 0 0 0 0 0 0 0 0 0 0 0 0 0 0 0 0 0 0 0 0 0 0 0 0 0 0 0 0
0 0 0 0 0 0 0 0 0 0 0 0 0 0 0 0 0 0 0 0 0 0 0 0 0 0 0 0 0 0 0 0 0 0 0 0 0 0 0 0 0 0 0 0 0 0 0 0 0
0 0 0 0 0 0 0 0 0 0 0 0 0 0 0 0 0 0 0 0 0 0 0 0 0 0 0 0 0 0 0 0 0 0 0 0 0 0 0 0 0 0 0 0 0 0 0 0 0
0 0 0 0 0 0 0 0 0 0 0 0 0 0 0 0 0 0 0 0 0 0 0 0 0 0 0 0 0 0 0 0 0 0 0 0 0 0 0 0 0 0 0 0 0 0 0 0 0
0 0 0 0 0 0 0 0 0 0 0 0 0 0 0 0 0 0 0 0 0 0 0 0 0 0 0 0 0 0 0 0 0 0 0 0 0 0 0 0 0 0 0 0 0 0 0 0 0
0 0 0 0 0 0 0 0 0 0 0 0 0 0 0 0 0 0 0 0 0 0 0 0 0 0 0 0 0 0 0 0 0 0 0 0 0 0 0 0 0 0 0 0 0 0 0 0 0
0 0 0 0 0 0 0 0 0 0 0 0 0 0 0 0 0 0 0 0 0 0 0 0 0 0 0 0 0 0 0 0 0 0 0 0 0 0 0 0 0 0 0 0 0 0 0 0 0
0 0 0 0 0 0 0 0 0 0 0 0 0 0 0 0 0 0 0 0 0 0 0 0 0 0 0 0 0 0 0 0 0 0 0 0 0 0 0 0 0 0 0 0 0 0 0 0 0
0 0 0 0 0 0 0 0 0 0 0 0 0 0 0 0 0 0 0 0 0 0 0 0 0 0 0 0 0 0 0 0 0 0 0 0 0 0 0 0 0 0 0 0 0 0 0 0 0
0 0 0 0 0 0 0 0 0 0 0 0 0 0 0 0 0 0 0 0 0 0 0 0 0 0 0 0 0 0 0 0 0 0 0 0 0 0 0 0 0 0 0 0 0 0 0 0 0
0 0 0 0 0 0 0 0 0 0 0 0 0 0 0 0 0 0 0 0 0 0 0 0 0 0 0 0 0 0 0 0 0 0 0 0 0 0 0 0 0 0 0 0 0 0 0 0 0
0 0 0 0 0 0 0 0 0 0 0 0 0 0 0 0 0 0 0 0 0 0 0 0 0 0 0 0 0 0 0 0 0 0 0 0 0 0 0 0 0 0 0 0 0 0 0 0 0
0 0 0 0 0 0 0 0 0 0 0 0 0 0 0 0 0 0 0 0 0 0 0 0 0 0 0 0 0 0 0 0 0 0 0 0 0 0 0 0 0 0 0 0 0 0 0 0 0
0 0 0 0 0 0 0 0 0 0 0 0 0 0 0 0 0 0 0 0 0 0 0 0 0 0 0 0 0 0 0 0 0 0 0 0 0 0 0 0 0 0 0 0 0 0 0 0 0
0 0 0 0 0 0 0 0 0 0 0 0 0 0 0 0 0 0 0 0 0 0 0 0 0 0 0 0 0 0 0 0 0 0 0 0 0 0 0 0 0 0 0 0 0 0 0 0 0
0 0 0 0 0 0 0 0 0 0 0 0 0 0 0 0 0 0 0 0 0 0 0 0 0 0 0 0 0 0 0 0 0 0 0 0 0 0 0 0 0 0 0 0 0 0 0 0 0
0 0 0 0 0 0 0 0 0 0 0 0 0 0 0 0 0 0 0 0 0 0 0 -0 -0 0 0 0 0 0 0 0 0 0 0 0 0 0 0 0 0 0 0 0 0 0 0 0 0
Wind_Speed
3 2 3 5 7 5 4 6 4 3 3 2 4 5 6 7 7 6 2 5 5 7 7 8 11 13 14 14 13 13 12 12 12 12 12 12 12 11 11 11 11 11 12 12 11 11 11 11 12
1 1 5 6 6 1 7 6 5 5 3 1 2 3 3 7 5 4 2 6 6 8 7 7 10 12 13 13 14 14 14 13 14 13 12 12 12 11 10 9 9 10 10 10 10 10 11 11 11
1 5 5 5 4 6 6 6 6 3 1 1 2 3 4 5 4 4 5 8 7 7 6 7 11 12 13 13 12 13 14 14 14 13 12 11 11 10 10 9 9 9 9 9 9 10 10 10 11
4 6 6 4 5 8 8 7 2 2 1 3 2 4 5 4 4 4 5 9 8 7 7 7 12 13 13 12 12 12 13 14 13 12 11 10 10 10 10 9 9 9 9 9 9 10 10 11 11
5 5 3 2 6 7 6 6 4 4 3 2 3 4 7 3 1 3 6 9 9 6 5 7 11 12 13 13 14 13 13 13 13 12 12 11 10 10 9 9 9 9 9 10 10 10 11 12 12
5 5 3 4 7 7 6 4 3 4 3 1 3 3 8 1 1 3 5 7 7 7 5 5 11 11 12 13 14 14 14 13 13 13 13 12 11 10 10 10 10 10 10 10 11 11 11 11 11
5 4 2 4 6 7 5 2 3 3 3 5 5 4 7 3 3 4 6 6 5 6 6 5 6 8 11 12 12 12 13 13 14 14 14 13 12 11 11 10 11 11 11 11 11 10 10 10 11
5 4 1 3 4 7 3 2 3 5 6 3 6 6 8 2 4 6 5 4 5 5 6 6 6 6 6 7 11 12 12 12 13 12 11 10 11 11 10 9 11 12 12 12 11 11 10 11 11
4 4 3 6 6 6 3 2 3 2 3 3 6 8 5 3 6 7 4 3 5 7 7 7 7 7 6 6 7 9 11 12 12 10 13 10 5 5 5 5 10 12 12 12 11 11 10 10 10
5 4 9 7 6 5 3 3 3 3 5 5 7 7 2 4 7 9 11 12 13 14 11 8 9 8 7 5 5 4 5 7 6 6 7 5 5 4 4 6 9 11 11 11 11 11 9 7 4
6 9 7 6 6 4 4 4 3 3 10 11 12 10 6 7 9 12 14 13 17 14 11 11 10 9 8 6 5 4 3 4 6 7 7 6 5 3 3 3 4 5 6 5 7 6 4 4 3
6 8 7 6 3 4 5 5 4 7 17 10 11 8 6 10 15 18 19 18 13 11 13 13 10 9 9 7 6 5 5 5 5 6 8 6 4 4 4 3 3 3 2 4 3 3 4 4 4
6 7 6 8 7 7 7 9 7 12 22 12 8 9 10 12 15 15 16 14 12 15 15 14 12 13 11 9 7 7 7 7 6 6 7 8 6 6 5 3 3 3 3 3 3 3 4 4 4
5 5 7 6 6 5 8 14 5 19 16 11 9 11 12 14 15 12 14 17 16 19 18 15 17 17 13 13 11 9 8 7 6 6 8 8 6 6 6 5 4 3 3 2 3 3 3 3 3
3 6 11 7 7 6 4 11 13 18 9 11 13 11 11 13 13 17 19 19 21 19 16 18 20 17 17 15 14 9 8 8 8 7 8 8 8 8 7 6 5 4 3 3 3 3 3 3 2
2 3 8 8 5 5 8 13 20 7 6 12 14 12 11 11 13 17 18 19 19 17 16 19 16 19 20 17 14 10 9 10 9 8 8 9 9 9 8 6 5 5 4 3 3 3 3 2 3
2 6 9 13 6 6 9 13 17 4 6 11 13 13 12 15 18 16 16 17 16 17 17 18 20 21 21 17 12 10 9 9 8 7 8 9 10 10 8 7 5 6 4 3 3 2 2 2 2
11 10 8 10 8 4 8 14 16 13 10 12 13 15 16 19 25 22 14 12 13 15 16 18 19 19 16 11 7 6 6 7 7 8 9 11 10 11 9 7 7 7 5 4 3 3 2 2 2
6 9 13 13 10 8 15 21 18 16 17 20 18 17 21 22 23 18 12 8 9 11 14 17 18 17 14 13 13 12 14 12 11 11 12 13 11 11 10 8 8 7 7 6 6 4 3 2 2
6 11 16 16 11 9 16 23 15 14 18 22 23 22 23 19 18 17 13 5 7 10 13 15 17 17 18 16 14 8 7 6 6 5 7 10 11 12 11 11 9 9 6 7 6 5 4 2 1
9 10 12 13 8 6 12 15 9 11 13 16 19 21 20 17 19 18 13 6 7 10 12 13 16 16 18 14 8 6 5 4 5 7 9 12 14 14 12 12 11 10 9 8 8 6 7 5 2
14 13 14 12 8 7 3 16 5 10 10 13 18 17 16 13 11 11 11 9 9 11 10 11 12 14 15 15 15 17 14 13 14 12 11 11 12 13 12 13 12 11 9 8 8 6 4 6 4
13 6 6 5 5 6 4 11 10 6 8 13 14 14 11 8 8 10 11 11 10 7 5 7 9 11 13 15 17 17 14 10 6 5 9 9 8 10 12 12 12 11 9 9 9 7 6 4 6
5 2 3 3 1 8 8 10 11 6 9 10 9 7 7 8 10 11 11 9 8 4 1 4 8 9 11 14 15 16 14 11 10 9 11 10 7 9 12 13 12 12 10 11 10 9 8 5 5
4 3 4 5 2 10 4 8 13 9 8 6 7 9 9 8 9 11 13 13 10 5 0 3 7 8 10 12 14 15 14 14 15 13 14 12 9 10 14 13 12 11 11 10 9 9 8 7 7
6 9 8 7 8 8 3 12 12 8 7 7 8 9 8 7 8 10 10 10 9 5 1 3 6 7 9 12 12 11 12 10 10 11 11 13 12 12 13 12 11 10 11 10 10 9 8 7 7
7 8 6 6 6 10 11 11 13 5 8 9 8 5 6 7 9 11 12 11 9 6 4 3 4 5 7 9 10 10 11 11 10 10 9 10 9 9 13 14 13 12 12 12 11 8 9 9 8
6 5 4 5 5 8 10 10 13 7 7 7 7 7 9 9 11 13 14 14 12 9 7 5 5 5 5 6 8 8 10 11 9 9 13 12 11 11 14 15 14 13 13 13 12 10 10 10 8
6 5 6 5 5 6 7 11 9 9 8 7 8 11 13 15 15 15 15 14 14 13 10 8 7 7 7 6 7 8 8 8 8 9 12 13 12 14 16 17 16 16 16 15 14 13 13 13 11
7 9 9 8 10 9 10 13 17 18 14 11 12 14 16 17 16 15 14 15 16 16 15 13 10 8 8 8 8 9 9 8 10 13 12 12 13 15 15 16 17 17 17 17 18 17 16 16 15
Wind_Direction
358 66 74 58 50 43 267 252 240 262 242 208 162 170 183 184 178 222 262 147 148 147 166 179 178 180 181 178 177 179 180 169 151 136 127 119 111 102 94 86 82 84 85 81 76 72 69 63 55
347 52 55 60 83 323 266 247 242 235 242 138 150 163 198 238 222 246 220 186 163 150 159 162 169 174 177 178 178 178 173 156 140 130 125 123 120 116 109 99 93 92 93 93 89 82 76 70 64
31 47 79 78 134 200 242 237 229 246 234 181 245 237 227 233 217 233 211 170 158 154 155 159 162 166 167 166 166 166 158 147 140 140 143 141 136 133 131 123 114 106 101 95 87 82 79 76 72
60 43 54 83 229 230 230 249 224 242 233 215 228 269 259 236 211 215 170 158 157 163 159 165 166 170 168 165 162 158 153 151 150 155 160 156 148 142 137 128 120 112 105 97 89 84 81 79 75
55 68 53 306 257 253 246 259 236 218 219 209 189 259 271 250 42 133 150 160 163 166 167 174 174 179 178 179 177 171 167 163 162 163 162 158 153 146 138 131 124 116 109 101 95 90 85 81 76
53 62 82 266 272 282 274 255 170 208 236 230 200 254 262 252 161 173 162 162 158 161 170 179 184 190 189 191 190 184 180 175 170 164 158 158 157 153 146 139 132 123 115 106 98 92 88 84 80
104 104 203 257 288 296 286 145 190 219 241 229 194 219 275 251 211 159 152 149 156 168 171 183 187 187 190 196 196 188 182 177 170 164 160 159 157 154 148 146 141 131 121 112 104 98 91 85 78
123 106 241 260 259 271 269 184 236 209 242 226 168 204 253 279 127 117 121 147 170 189 190 188 184 177 179 188 191 186 177 171 168 162 151 147 150 148 146 152 145 134 127 119 113 105 97 89 80
93 87 234 233 220 251 265 249 259 191 243 236 217 223 235 108 120 122 138 192 213 213 206 194 187 182 176 174 180 175 170 170 167 151 142 130 123 128 139 163 143 137 131 124 117 109 100 88 81
106 175 228 220 208 238 275 245 267 275 268 255 259 254 155 149 164 175 189 202 208 213 208 199 190 183 175 173 167 161 158 162 151 142 136 129 130 140 136 137 129 130 129 125 118 107 94 80 59
171 205 230 237 227 246 265 254 232 234 263 232 232 243 192 182 199 206 208 209 212 211 206 203 196 184 178 174 165 162 154 148 147 147 143 141 136 132 108 93 92 85 93 88 100 92 80 77 68
198 236 231 241 220 235 251 272 253 217 244 236 222 234 188 198 209 214 215 218 214 207 208 201 194 190 187 178 174 169 167 164 165 162 156 151 148 144 140 131 131 120 112 118 115 116 109 95 83
220 255 245 242 256 262 272 261 254 256 258 268 245 239 224 217 221 223 225 228 217 216 212 202 193 196 190 184 184 183 184 180 173 166 167 163 161 159 152 148 145 143 139 141 140 131 120 106 88
244 264 279 266 245 238 236 265 243 259 266 287 263 245 237 230 228 228 229 231 223 221 214 202 200 200 193 194 194 192 188 180 173 176 175 171 165 159 154 151 154 156 154 150 145 135 122 107 97
313 307 298 257 224 242 192 277 246 249 286 292 281 264 252 242 233 230 230 228 224 222 211 204 203 198 198 200 197 191 187 181 185 183 177 174 168 163 158 155 160 161 155 151 136 124 112 105 91
351 288 284 273 200 200 162 249 264 254 251 271 279 282 277 266 242 238 236 232 226 219 209 207 200 199 202 201 196 193 188 187 188 179 178 178 172 165 159 160 162 157 156 160 156 145 116 92 82
313 252 251 285 241 190 193 239 269 278 227 257 272 277 279 283 278 258 238 233 226 216 211 204 201 200 201 199 193 189 184 189 184 175 178 180 176 170 164 163 158 154 157 167 166 135 134 113 84
237 237 244 255 275 204 228 248 268 287 275 262 263 271 273 273 273 273 259 234 224 216 209 206 202 202 193 183 172 168 175 184 179 181 184 180 180 173 164 160 158 156 157 170 168 136 116 112 113
246 262 265 260 270 281 265 266 266 270 278 276 268 263 267 270 271 276 272 245 223 215 207 205 200 196 182 183 185 185 193 191 191 192 186 182 176 172 169 165 161 167 173 174 161 140 136 121 142
264 274 275 277 267 263 273 274 269 251 252 259 267 269 268 270 283 283 284 264 227 219 211 206 201 192 188 191 191 188 176 180 185 174 173 177 173 173 176 170 173 174 167 169 176 160 145 130 124
241 236 253 262 301 301 296 283 230 248 247 258 262 265 271 273 278 289 310 302 245 232 216 207 200 193 191 180 162 135 113 106 153 181 187 188 182 179 178 176 173 176 176 181 183 179 158 145 133
258 236 247 274 302 287 313 297 207 227 251 260 262 266 271 279 293 301 304 296 260 242 220 205 193 189 184 175 177 177 185 190 192 190 189 184 183 179 176 175 176 177 178 178 182 181 178 143 145
238 267 263 268 257 283 192 263 285 197 238 258 260 265 282 307 311 307 305 298 288 273 225 194 181 182 180 182 186 188 197 198 169 158 165 172 178 179 177 176 177 178 179 178 175 176 181 164 154
228 358 346 47 66 277 205 219 282 192 211 243 266 293 310 315 320 320 319 319 316 328 256 173 169 177 179 186 188 193 194 179 166 171 175 177 180 185 186 181 182 181 180 180 180 179 182 179 161
144 129 337 325 295 255 212 228 255 238 236 236 276 292 303 316 324 327 332 335 331 331 322 172 170 176 180 189 196 198 197 190 189 183 183 181 181 192 194 188 186 185 184 179 173 176 183 179 173
183 166 185 230 248 276 233 245 255 238 261 268 268 276 296 316 326 334 339 337 333 324 241 190 188 187 187 195 201 201 199 198 198 188 186 188 192 194 184 188 186 184 178 176 174 177 178 175 174
171 205 205 209 258 278 266 270 293 249 277 279 279 285 306 320 333 347 356 356 348 337 304 249 223 216 206 206 206 205 203 204 199 187 184 191 190 180 177 183 184 182 180 177 173 179 178 176 179
194 172 126 172 215 240 261 269 268 293 282 293 306 313 318 328 350 5 14 10 4 353 337 324 298 272 249 230 224 223 218 214 200 185 194 194 188 179 178 184 185 183 183 179 177 177 176 175 178
171 180 193 199 202 220 243 258 269 309 319 324 321 330 343 359 10 18 19 18 18 13 2 343 323 307 292 269 251 244 235 222 212 208 205 198 189 185 185 186 186 186 186 183 182 181 176 179 177
208 212 203 224 236 231 251 261 283 297 323 359 3 7 16 20 20 18 16 16 17 14 9 1 344 321 294 274 257 247 240 222 218 221 213 202 196 192 189 186 188 190 190 188 187 183 180 181 182